Regional Weather Roundup
Issued by NWS Midland/Odessa, TX

Skip options and go directly to product.
Home | Oldest Version | Previous Version | Current Version | All | Graphics & Text | Save Text | Print | Product List | Glossary On

Skip product version selection by date and time.   
673
ASUS44 KMAF 040610
RWRMAF
MIDLAND AREA WEATHER ROUNDUP
NATIONAL WEATHER SERVICE MIDLAND TX
100 AM CDT WED MAY 04 2016

...IN SOUTHWEST TEXAS AND SOUTHEAST NEW MEXICO...

CITY           SKY/WX    TMP DP  RH WIND       PRES   REMARKS
ALPINE         CLEAR     56  39  52 SW3       30.24S
ANDREWS        FAIR      55  48  77 SE5       30.18S
ARTESIA        CLEAR     55  32  41 NW6       30.20R
BIG SPRING     CLEAR     55  46  72 E5        30.18R
CARLSBAD       CLEAR     60  36  40 CALM      30.18R
DRYDEN           N/A     64  49  57 NE6       30.09R
FORT STOCKTON  CLEAR     62  39  42 E9        30.15R
GUAD PASS      CLEAR     58  33  39 NE31      30.26R
HOBBS            N/A     50  46  87 E7        30.21R
MARFA          CLEAR     51  38  60 N9        30.22R
MIDLAND AIRPK  CLEAR     60  48  64 SE5       30.18R
MIDLAND INTL   CLEAR     59  47  64 SE5       30.17R
ODESSA         CLEAR     60  47  61 SE8       30.18R
PECOS          CLEAR     65  43  45 NE9       30.15R
PRESIDIO       FAIR      72  45  37 NE15G24   30.08R
SEMINOLE       CLEAR     53  48  84 CALM      30.20S
SNYDER           N/A     54  51  89 CALM      30.16R
WINK           CLEAR     62  47  57 E8        30.15R
$$
...OTHER STATIONS IN TEXAS...

CITY           SKY/WX    TMP DP  RH WIND       PRES   REMARKS
ABILENE        CLEAR     55  53  93 S3        30.13R
AMARILLO       CLEAR     44  36  73 SW5       30.18S
AUSTIN         CLEAR     54  52  93 CALM      30.09S
BROWNSVILLE    CLOUDY    69  62  78 CALM      30.04F
CORPUS CHRISTI MOCLDY    68  54  60 NW5       30.06R
DALLAS FTW     PTCLDY    61  53  75 N7        30.07S
DEL RIO        CLEAR     65  56  72 E6        30.07R
EL PASO        CLEAR     69  33  26 NE8       30.14R
HOUSTON INT    CLEAR     61  53  75 NW5       30.07R
LUBBOCK        CLEAR     49  44  83 NW6       30.17S
SAN ANGELO     CLEAR     57  52  83 E5        30.14S
SAN ANTONIO    PTCLDY    61  49  64 CALM      30.10S
WACO           CLEAR     56  52  86 SW6       30.07S
WICHITA FALLS  NOT AVBL
$$
...OTHER LOCATIONS IN NEW MEXICO...

CITY           SKY/WX    TMP DP  RH WIND       PRES   REMARKS
ALAMAGORDO     CLEAR     66  28  24 E7        30.17S
ALBUQUERQUE    CLEAR     61  30  31 E15       30.25R
CANNON AFB     CLEAR     47  31  53 NE8       30.23R
CLOVIS         CLEAR     50  34  53 CALM      30.24S
HOLLOMAN AFB   CLEAR     63  31  30 CALM      30.15S
ROSWELL        CLEAR     52  31  44 W3        30.20R
RUIDOSO          N/A     46  30  53 SW7       30.36R
SANTA FE       CLEAR     46  30  53 W3        30.30S
TRUTH OR CONSE CLEAR     61  24  24 CALM      30.20R
TUCUMCARI      CLEAR     45  34  65 W5        30.21R
$$

USA.gov is the U.S. government's official web portal to all federal, state and local government web resources and services.